| time (UTC) | temp C | wind direction | speed KPH | gust KPH | rain 1hr cm | rain 24hr cm | rain mn cm | humidity % | barometer mb |
| 20260901054729 | 28 | 4 | 1.6 | 9.7 | 0.00 | 0.00 | 0.00 | 81 | 1016.2 |
| 20260901054604 | 28 | 24 | 3.2 | 11.3 | 0.00 | 0.00 | 0.00 | 81 | 1016.4 |
| 20260901054451 | 28 | 214 | 3.2 | 9.7 | 0.00 | 0.00 | 0.00 | 81 | 1016.3 |
| 20260901053728 | 28 | 108 | 3.2 | 9.7 | 0.00 | 0.00 | 0.00 | 81 | 1016.1 |
| 20260901053233 | 28 | 302 | 4.8 | 9.7 | 0.00 | 0.00 | 0.00 | 81 | 1016.3 |
| 20260901053123 | 28 | 162 | 3.2 | 11.3 | 0.00 | 0.00 | 0.00 | 80 | 1016.5 |
| 20260901052950 | 28 | 208 | 3.2 | 9.7 | 0.00 | 0.00 | 0.00 | 81 | 1016.2 |
| 20260901052229 | 28 | 36 | 3.2 | 9.7 | 0.00 | 0.00 | 0.00 | 81 | 1016.3 |
| 20260901051729 | 28 | 207 | 3.2 | 11.3 | 0.00 | 0.00 | 0.00 | 80 | 1016.3 |
| 20260901051607 | 28 | 18 | 3.2 | 11.3 | 0.00 | 0.00 | 0.00 | 80 | 1016.6 |
| 20260901051449 | 28 | 90 | 3.2 | 11.3 | 0.00 | 0.00 | 0.00 | 80 | 1016.4 |
| 20260901051221 | 28 | 142 | 3.2 | 8.0 | 0.00 | 0.00 | 0.00 | 80 | 1016.4 |
| 20260901050231 | 28 | 160 | 3.2 | 8.0 | 0.00 | 0.00 | 0.00 | 80 | 1016.4 |
| 20260901050108 | 28 | 226 | 1.6 | 9.7 | 0.00 | 0.00 | 0.00 | 79 | 1016.6 |
| 20260901045955 | 28 | 249 | 1.6 | 9.7 | 0.00 | 0.00 | 0.00 | 79 | 1016.3 |
| 20260901045455 | 28 | 230 | 4.8 | 9.7 | 0.00 | 0.00 | 0.00 | 79 | 1016.4 |
| 20260901044940 | 28 | 256 | 3.2 | 14.5 | 0.00 | 0.00 | 0.00 | 79 | 1016.6 |
| 20260901044928 | 28 | 177 | 4.8 | 12.9 | 0.00 | 0.00 | 0.00 | 79 | 1016.4 |
| 20260901044634 | 28 | 200 | 3.2 | 12.9 | 0.00 | 0.00 | 0.00 | 78 | 1016.7 |
| 20260901043729 | 28 | 274 | 4.8 | 14.5 | 0.00 | 0.00 | 0.00 | 78 | 1016.5 |
| 20260901043229 | 28 | 185 | 4.8 | 11.3 | 0.00 | 0.00 | 0.00 | 78 | 1016.6 |
| 20260901043053 | 28 | 192 | 3.2 | 14.5 | 0.00 | 0.00 | 0.00 | 77 | 1016.7 |
| 20260901042729 | 28 | 317 | 6.4 | 14.5 | 0.00 | 0.00 | 0.00 | 77 | 1016.6 |
| 20260901042229 | 29 | 191 | 6.4 | 14.5 | 0.00 | 0.00 | 0.00 | 77 | 1016.4 |
| 20260901041729 | 29 | 214 | 6.4 | 12.9 | 0.00 | 0.00 | 0.00 | 77 | 1016.4 |
| 20260901041602 | 28 | 349 | 3.2 | 11.3 | 0.00 | 0.00 | 0.00 | 76 | 1016.8 |
| 20260901041229 | 29 | 140 | 3.2 | 11.3 | 0.00 | 0.00 | 0.00 | 76 | 1016.5 |
| 20260901040729 | 29 | 335 | 4.8 | 12.9 | 0.00 | 0.00 | 0.00 | 76 | 1016.4 |
| 20260901040231 | 29 | 84 | 6.4 | 12.9 | 0.00 | 0.00 | 0.00 | 76 | 1016.4 |
| 20260901040059 | 28 | 304 | 4.8 | 12.9 | 0.00 | 0.00 | 0.00 | 75 | 1016.6 |
| 20260901035957 | 29 | 139 | 3.2 | 12.9 | 0.00 | 0.00 | 0.00 | 76 | 1016.4 |
| 20260901035231 | 29 | 302 | 8.0 | 12.9 | 0.00 | 0.00 | 0.00 | 76 | 1016.3 |
| 20260901034731 | 29 | 124 | 4.8 | 14.5 | 0.00 | 0.00 | 0.00 | 75 | 1016.2 |
| 20260901034601 | 29 | 357 | 3.2 | 14.5 | 0.00 | 0.00 | 0.00 | 75 | 1016.4 |
| 20260901034243 | 29 | 46 | 4.8 | 14.5 | 0.00 | 0.00 | 0.00 | 75 | 1016.3 |
| 20260901033728 | 29 | 324 | 8.0 | 14.5 | 0.00 | 0.00 | 0.00 | 75 | 1016.1 |
| 20260901033229 | 29 | 231 | 6.4 | 14.5 | 0.00 | 0.00 | 0.00 | 75 | 1016.1 |
| 20260901033100 | 29 | 231 | 4.8 | 14.5 | 0.00 | 0.00 | 0.00 | 74 | 1016.4 |
| 20260901032729 | 29 | 86 | 6.4 | 12.9 | 0.00 | 0.00 | 0.00 | 75 | 1016.1 |
| 20260901032229 | 29 | 297 | 6.4 | 16.1 | 0.00 | 0.00 | 0.00 | 75 | 1016.0 |
| 20260901031729 | 30 | 101 | 8.0 | 16.1 | 0.00 | 0.00 | 0.00 | 74 | 1016.0 |
| 20260901031600 | 29 | 3 | 6.4 | 17.7 | 0.00 | 0.00 | 0.00 | 74 | 1016.2 |
| 20260901031229 | 30 | 4 | 6.4 | 14.5 | 0.00 | 0.00 | 0.00 | 74 | 1015.9 |
| 20260901030728 | 30 | 211 | 8.0 | 14.5 | 0.00 | 0.00 | 0.00 | 73 | 1015.9 |
| 20260901030226 | 30 | 96 | 6.4 | 17.7 | 0.00 | 0.00 | 0.00 | 73 | 1015.9 |
| 20260901030105 | 30 | 307 | 4.8 | 17.7 | 0.00 | 0.00 | 0.00 | 72 | 1016.0 |
| 20260901025724 | 30 | 249 | 8.0 | 17.7 | 0.00 | 0.00 | 0.00 | 72 | 1015.7 |
| 20260901025219 | 30 | 150 | 8.0 | 12.9 | 0.00 | 0.00 | 0.00 | 72 | 1015.6 |
| 20260901024715 | 30 | 6 | 8.0 | 17.7 | 0.00 | 0.00 | 0.00 | 71 | 1015.2 |
| 20260901024605 | 30 | 312 | 6.4 | 17.7 | 0.00 | 0.00 | 0.00 | 71 | 1015.5 |
| 20260901024216 | 30 | 20 | 6.4 | 19.3 | 0.00 | 0.00 | 0.00 | 71 | 1015.1 |
| 20260901023705 | 30 | 157 | 6.4 | 19.3 | 0.00 | 0.00 | 0.00 | 70 | 1015.0 |
| 20260901023204 | 30 | 184 | 8.0 | 19.3 | 0.00 | 0.00 | 0.00 | 69 | 1015.0 |
| 20260901023107 | 30 | 231 | 6.4 | 16.1 | 0.00 | 0.00 | 0.00 | 68 | 1015.0 |
| 20260901022712 | 30 | 177 | 8.0 | 17.7 | 0.00 | 0.00 | 0.00 | 68 | 1014.8 |
| 20260901022217 | 30 | 68 | 9.7 | 19.3 | 0.00 | 0.00 | 0.00 | 67 | 1014.6 |
| 20260901021708 | 30 | 56 | 9.7 | 19.3 | 0.00 | 0.00 | 0.00 | 66 | 1014.6 |
| 20260901021634 | 30 | 101 | 8.0 | 17.7 | 0.00 | 0.00 | 0.00 | 66 | 1014.6 |
| 20260901021216 | 31 | 177 | 6.4 | 19.3 | 0.00 | 0.00 | 0.00 | 65 | 1014.5 |
| 20260901020923 | 31 | 44 | 8.0 | 20.9 | 0.00 | 0.00 | 0.00 | 64 | 1014.5 |
| 20260901020156 | 31 | 323 | 11.3 | 20.9 | 0.00 | 0.00 | 0.00 | 64 | 1014.3 |
| 20260901020111 | 31 | 44 | 9.7 | 20.9 | 0.00 | 0.00 | 0.00 | 63 | 1014.4 |
| 20260901015653 | 31 | 300 | 11.3 | 19.3 | 0.00 | 0.00 | 0.00 | 63 | 1014.3 |
| 20260901015147 | 31 | 208 | 6.4 | 17.7 | 0.00 | 0.00 | 0.00 | 62 | 1014.1 |
| 20260901014642 | 31 | 323 | 6.4 | 16.1 | 0.00 | 0.00 | 0.00 | 62 | 1014.1 |
| 20260901014606 | 31 | 333 | 4.8 | 19.3 | 0.00 | 0.00 | 0.00 | 61 | 1014.3 |
| 20260901014405 | 31 | 189 | 8.0 | 19.3 | 0.00 | 0.00 | 0.00 | 61 | 1014.0 |
| 20260901013632 | 31 | 150 | 9.7 | 19.3 | 0.00 | 0.00 | 0.00 | 62 | 1013.9 |
| 20260901013132 | 31 | 227 | 9.7 | 16.1 | 0.00 | 0.00 | 0.00 | 61 | 1013.9 |
| 20260901013109 | 31 | 356 | 8.0 | 17.7 | 0.00 | 0.00 | 0.00 | 61 | 1014.0 |
| 20260901012630 | 32 | 344 | 8.0 | 20.9 | 0.00 | 0.00 | 0.00 | 61 | 1013.8 |
| 20260901012400 | 32 | 108 | 9.7 | 20.9 | 0.00 | 0.00 | 0.00 | 60 | 1013.8 |
| 20260901011628 | 32 | 221 | 6.4 | 29.0 | 0.00 | 0.00 | 0.00 | 59 | 1013.8 |
| 20260901011556 | 32 | 25 | 8.0 | 27.4 | 0.00 | 0.00 | 0.00 | 59 | 1013.9 |
| 20260901011122 | 32 | 16 | 11.3 | 29.0 | 0.00 | 0.00 | 0.00 | 58 | 1013.6 |
| 20260901010632 | 32 | 207 | 6.4 | 17.7 | 0.00 | 0.00 | 0.00 | 57 | 1013.5 |
| 20260901010122 | 32 | 180 | 6.4 | 14.5 | 0.00 | 0.00 | 0.00 | 56 | 1013.6 |
| 20260901010101 | 32 | 257 | 4.8 | 20.9 | 0.00 | 0.00 | 0.00 | 55 | 1013.7 |
| 20260901005841 | 33 | 259 | 8.0 | 20.9 | 0.00 | 0.00 | 0.00 | 55 | 1013.5 |
| 20260901005116 | 33 | 303 | 8.0 | 20.9 | 0.00 | 0.00 | 0.00 | 54 | 1013.4 |
| 20260901004611 | 33 | 49 | 12.9 | 19.3 | 0.00 | 0.00 | 0.00 | 53 | 1013.3 |
| 20260901004608 | 33 | 323 | 9.7 | 20.9 | 0.00 | 0.00 | 0.00 | 52 | 1013.5 |
| 20260901004106 | 33 | 219 | 11.3 | 20.9 | 0.00 | 0.00 | 0.00 | 52 | 1013.2 |
| 20260901003614 | 33 | 110 | 9.7 | 20.9 | 0.00 | 0.00 | 0.00 | 51 | 1013.1 |
| 20260901003123 | 33 | 238 | 6.4 | 20.9 | 0.00 | 0.00 | 0.00 | 50 | 1013.2 |
| 20260901003115 | 34 | 278 | 8.0 | 17.7 | 0.00 | 0.00 | 0.00 | 50 | 1013.0 |
| 20260901002602 | 34 | 301 | 6.4 | 17.7 | 0.00 | 0.00 | 0.00 | 50 | 1013.0 |
| 20260901002104 | 34 | 158 | 8.0 | 17.7 | 0.00 | 0.00 | 0.00 | 49 | 1013.0 |
| 20260901001612 | 34 | 300 | 11.3 | 19.3 | 0.00 | 0.00 | 0.00 | 48 | 1013.1 |
| 20260901001602 | 34 | 38 | 11.3 | 17.7 | 0.00 | 0.00 | 0.00 | 48 | 1013.0 |
| 20260901001056 | 35 | 102 | 9.7 | 20.9 | 0.00 | 0.00 | 0.00 | 48 | 1012.8 |
| 20260901000552 | 35 | 283 | 8.0 | 20.9 | 0.00 | 0.00 | 0.00 | 48 | 1012.9 |
| 20260901000059 | 35 | 207 | 8.0 | 17.7 | 0.00 | 0.00 | 0.00 | 46 | 1013.0 |
| 20260901000050 | 35 | 198 | 8.0 | 17.7 | 0.00 | 0.00 | 0.00 | 47 | 1012.8 |
| 20260831235551 | 35 | 188 | 6.4 | 17.7 | 0.00 | 0.00 | 0.00 | 46 | 1012.7 |
| 20260831235045 | 35 | 126 | 6.4 | 16.1 | 0.00 | 0.00 | 0.00 | 45 | 1012.6 |
| 20260831234624 | 35 | 75 | 9.7 | 19.3 | 0.00 | 0.00 | 0.00 | 44 | 1012.8 |
| 20260831234541 | 36 | 89 | 11.3 | 19.3 | 0.00 | 0.00 | 0.00 | 45 | 1012.6 |
| 20260831234036 | 36 | 10 | 8.0 | 19.3 | 0.00 | 0.00 | 0.00 | 45 | 1012.6 |
| 20260831233540 | 36 | 355 | 9.7 | 19.3 | 0.00 | 0.00 | 0.00 | 44 | 1012.5 |
| 20260831233052 | 36 | 299 | 11.3 | 20.9 | 0.00 | 0.00 | 0.00 | 42 | 1012.6 |
| 20260831233029 | 36 | 333 | 12.9 | 22.5 | 0.00 | 0.00 | 0.00 | 42 | 1012.4 |
| 20260831232529 | 36 | 312 | 9.7 | 22.5 | 0.00 | 0.00 | 0.00 | 42 | 1012.5 |
| 20260831232029 | 37 | 137 | 4.8 | 14.5 | 0.00 | 0.00 | 0.00 | 41 | 1012.5 |
| 20260831231607 | 37 | 312 | 4.8 | 19.3 | 0.00 | 0.00 | 0.00 | 39 | 1012.5 |
| 20260831231526 | 37 | 167 | 6.4 | 20.9 | 0.00 | 0.00 | 0.00 | 40 | 1012.4 |
| 20260831231022 | 37 | 26 | 9.7 | 20.9 | 0.00 | 0.00 | 0.00 | 39 | 1012.5 |
| 20260831230522 | 37 | 66 | 8.0 | 16.1 | 0.00 | 0.00 | 0.00 | 38 | 1012.5 |
| 20260831230057 | 37 | 266 | 6.4 | 16.1 | 0.00 | 0.00 | 0.00 | 38 | 1012.7 |
| 20260831230021 | 37 | 101 | 6.4 | 14.5 | 0.00 | 0.00 | 0.00 | 38 | 1012.4 |
| 20260831225521 | 37 | 117 | 4.8 | 19.3 | 0.00 | 0.00 | 0.00 | 39 | 1012.3 |
| 20260831225241 | 37 | 147 | 6.4 | 19.3 | 0.00 | 0.00 | 0.00 | 40 | 1012.4 |
| 20260831224602 | 37 | 45 | 4.8 | 20.9 | 0.00 | 0.00 | 0.00 | 39 | 1012.6 |
| 20260831224514 | 38 | 63 | 4.8 | 12.9 | 0.00 | 0.00 | 0.00 | 41 | 1012.4 |
| 20260831224012 | 38 | 346 | 8.0 | 17.7 | 0.00 | 0.00 | 0.00 | 40 | 1012.4 |
| 20260831223509 | 38 | 57 | 8.0 | 17.7 | 0.00 | 0.00 | 0.00 | 40 | 1012.5 |
| 20260831223228 | 38 | 138 | 6.4 | 16.1 | 0.00 | 0.00 | 0.00 | 39 | 1012.3 |
| 20260831223058 | 38 | 295 | 4.8 | 16.1 | 0.00 | 0.00 | 0.00 | 39 | 1012.5 |
| 20260831222506 | 38 | 54 | 8.0 | 16.1 | 0.00 | 0.00 | 0.00 | 39 | 1012.4 |
| 20260831222008 | 38 | 133 | 6.4 | 12.9 | 0.00 | 0.00 | 0.00 | 40 | 1012.5 |
| 20260831221729 | 38 | 117 | 6.4 | 12.9 | 0.00 | 0.00 | 0.00 | 39 | 1012.5 |
| 20260831221554 | 38 | 258 | 6.4 | 12.9 | 0.00 | 0.00 | 0.00 | 38 | 1012.8 |
| 20260831221228 | 38 | 276 | 6.4 | 14.5 | 0.00 | 0.00 | 0.00 | 38 | 1012.6 |
| 20260831220506 | 38 | 335 | 8.0 | 17.7 | 0.00 | 0.00 | 0.00 | 39 | 1012.7 |
| 20260831220111 | 38 | 252 | 8.0 | 17.7 | 0.00 | 0.00 | 0.00 | 39 | 1012.8 |
| 20260831220005 | 38 | 103 | 9.7 | 17.7 | 0.00 | 0.00 | 0.00 | 39 | 1012.6 |
| 20260831215503 | 38 | 23 | 4.8 | 14.5 | 0.00 | 0.00 | 0.00 | 38 | 1012.8 |
| 20260831215003 | 38 | 268 | 8.0 | 20.9 | 0.00 | 0.00 | 0.00 | 38 | 1012.7 |
| 20260831214559 | 38 | 55 | 6.4 | 19.3 | 0.00 | 0.00 | 0.00 | 36 | 1012.9 |
| 20260831214502 | 38 | 143 | 6.4 | 20.9 | 0.00 | 0.00 | 0.00 | 35 | 1012.7 |
| 20260831214001 | 39 | 319 | 6.4 | 19.3 | 0.00 | 0.00 | 0.00 | 36 | 1012.7 |
| 20260831213500 | 39 | 213 | 6.4 | 16.1 | 0.00 | 0.00 | 0.00 | 36 | 1012.7 |
| 20260831213054 | 38 | 104 | 6.4 | 14.5 | 0.00 | 0.00 | 0.00 | 35 | 1013.0 |
| 20260831213000 | 39 | 221 | 6.4 | 16.1 | 0.00 | 0.00 | 0.00 | 36 | 1012.8 |
| 20260831212501 | 39 | 300 | 8.0 | 16.1 | 0.00 | 0.00 | 0.00 | 35 | 1013.0 |
| 20260831212001 | 39 | 277 | 4.8 | 16.1 | 0.00 | 0.00 | 0.00 | 36 | 1013.0 |
| 20260831211612 | 38 | 335 | 6.4 | 17.7 | 0.00 | 0.00 | 0.00 | 35 | 1013.2 |
| 20260831211501 | 39 | 46 | 8.0 | 17.7 | 0.00 | 0.00 | 0.00 | 36 | 1013.0 |
| 20260831211001 | 39 | 326 | 6.4 | 19.3 | 0.00 | 0.00 | 0.00 | 36 | 1013.1 |
| 20260831210501 | 39 | 41 | 8.0 | 19.3 | 0.00 | 0.00 | 0.00 | 37 | 1013.1 |
| 20260831210103 | 38 | 168 | 6.4 | 12.9 | 0.00 | 0.00 | 0.00 | 34 | 1013.3 |
| 20260831210000 | 39 | 335 | 8.0 | 12.9 | 0.00 | 0.00 | 0.00 | 35 | 1013.0 |
| 20260831205502 | 39 | 115 | 4.8 | 14.5 | 0.00 | 0.00 | 0.00 | 36 | 1013.2 |
| 20260831205003 | 39 | 56 | 3.2 | 14.5 | 0.00 | 0.00 | 0.00 | 36 | 1013.3 |
| 20260831204559 | 39 | 167 | 8.0 | 14.5 | 0.00 | 0.00 | 0.00 | 36 | 1013.6 |
| 20260831204503 | 39 | 131 | 9.7 | 14.5 | 0.00 | 0.00 | 0.00 | 35 | 1013.5 |
| 20260831204002 | 39 | 202 | 6.4 | 14.5 | 0.00 | 0.00 | 0.00 | 36 | 1013.4 |
| 20260831203501 | 39 | 16 | 3.2 | 14.5 | 0.00 | 0.00 | 0.00 | 37 | 1013.5 |
| 20260831203102 | 39 | 49 | 4.8 | 14.5 | 0.00 | 0.00 | 0.00 | 36 | 1013.8 |
| 20260831203001 | 39 | 224 | 6.4 | 14.5 | 0.00 | 0.00 | 0.00 | 37 | 1013.7 |
| 20260831202501 | 39 | 243 | 9.7 | 14.5 | 0.00 | 0.00 | 0.00 | 37 | 1013.6 |
| 20260831202001 | 39 | 12 | 4.8 | 14.5 | 0.00 | 0.00 | 0.00 | 36 | 1013.7 |
| 20260831201952 | 40 | 280 | 6.4 | 12.9 | 0.00 | 0.00 | 0.00 | 38 | 1013.7 |
| 20260831201608 | 39 | 309 | 4.8 | 14.5 | 0.00 | 0.00 | 0.00 | 39 | 1013.9 |
| 20260831201000 | 39 | 184 | 4.8 | 16.1 | 0.00 | 0.00 | 0.00 | 39 | 1013.8 |
| 20260831200501 | 39 | 103 | 6.4 | 16.1 | 0.00 | 0.00 | 0.00 | 38 | 1013.8 |
| 20260831200221 | 39 | 183 | 4.8 | 12.9 | 0.00 | 0.00 | 0.00 | 39 | 1013.9 |
| 20260831200105 | 38 | 258 | 3.2 | 14.5 | 0.00 | 0.00 | 0.00 | 38 | 1014.1 |
| 20260831195502 | 39 | 235 | 6.4 | 12.9 | 0.00 | 0.00 | 0.00 | 38 | 1013.9 |
| 20260831195229 | 39 | 108 | 4.8 | 12.9 | 0.00 | 0.00 | 0.00 | 38 | 1013.9 |
| 20260831194723 | 40 | 90 | 3.2 | 20.9 | 0.00 | 0.00 | 0.00 | 36 | 1014.1 |
| 20260831194635 | 39 | 277 | 3.2 | 20.9 | 0.00 | 0.00 | 0.00 | 35 | 1014.3 |
| 20260831194003 | 39 | 316 | 8.0 | 20.9 | 0.00 | 0.00 | 0.00 | 38 | 1014.1 |
| 20260831193515 | 39 | 23 | 3.2 | 16.1 | 0.00 | 0.00 | 0.00 | 37 | 1014.2 |
| 20260831193102 | 38 | 221 | 6.4 | 14.5 | 0.00 | 0.00 | 0.00 | 37 | 1014.4 |
| 20260831193002 | 39 | 309 | 6.4 | 16.1 | 0.00 | 0.00 | 0.00 | 37 | 1014.3 |
| 20260831192502 | 38 | 226 | 6.4 | 11.3 | 0.00 | 0.00 | 0.00 | 37 | 1014.3 |
| 20260831192002 | 38 | 298 | 4.8 | 22.5 | 0.00 | 0.00 | 0.00 | 37 | 1014.5 |
| 20260831191726 | 38 | 1 | 8.0 | 22.5 | 0.00 | 0.00 | 0.00 | 37 | 1014.5 |
| 20260831191602 | 38 | 269 | 8.0 | 20.9 | 0.00 | 0.00 | 0.00 | 37 | 1014.6 |
| 20260831191002 | 38 | 346 | 6.4 | 17.7 | 0.00 | 0.00 | 0.00 | 38 | 1014.5 |
| 20260831190722 | 38 | 29 | 4.8 | 25.7 | 0.00 | 0.00 | 0.00 | 39 | 1014.7 |
| 20260831190113 | 38 | 130 | 4.8 | 24.1 | 0.00 | 0.00 | 0.00 | 38 | 1015.0 |
| 20260831190002 | 38 | 209 | 4.8 | 25.7 | 0.00 | 0.00 | 0.00 | 39 | 1014.7 |
| 20260831185502 | 38 | 290 | 6.4 | 14.5 | 0.00 | 0.00 | 0.00 | 38 | 1014.9 |
| 20260831185003 | 38 | 113 | 1.6 | 14.5 | 0.00 | 0.00 | 0.00 | 41 | 1014.8 |
| 20260831184631 | 37 | 226 | 4.8 | 12.9 | 0.00 | 0.00 | 0.00 | 41 | 1015.1 |
| 20260831184502 | 38 | 157 | 6.4 | 14.5 | 0.00 | 0.00 | 0.00 | 41 | 1014.9 |
| 20260831184228 | 38 | 95 | 3.2 | 14.5 | 0.00 | 0.00 | 0.00 | 42 | 1015.0 |
| 20260831183500 | 37 | 207 | 4.8 | 14.5 | 0.00 | 0.00 | 0.00 | 43 | 1015.1 |
| 20260831183108 | 37 | 20 | 4.8 | 14.5 | 0.00 | 0.00 | 0.00 | 43 | 1015.3 |
| 20260831183001 | 37 | 224 | 4.8 | 14.5 | 0.00 | 0.00 | 0.00 | 43 | 1015.1 |
| 20260831182501 | 37 | 169 | 6.4 | 14.5 | 0.00 | 0.00 | 0.00 | 41 | 1015.2 |
| 20260831182001 | 37 | 81 | 6.4 | 17.7 | 0.00 | 0.00 | 0.00 | 43 | 1015.3 |
| 20260831181559 | 37 | 285 | 6.4 | 17.7 | 0.00 | 0.00 | 0.00 | 42 | 1015.5 |
| 20260831181501 | 37 | 344 | 6.4 | 17.7 | 0.00 | 0.00 | 0.00 | 42 | 1015.2 |
| 20260831181001 | 37 | 148 | 4.8 | 20.9 | 0.00 | 0.00 | 0.00 | 43 | 1015.5 |
| 20260831180501 | 37 | 91 | 6.4 | 20.9 | 0.00 | 0.00 | 0.00 | 44 | 1015.5 |
| 20260831180054 | 37 | 265 | 4.8 | 12.9 | 0.00 | 0.00 | 0.00 | 45 | 1015.8 |
| 20260831180001 | 37 | 269 | 6.4 | 14.5 | 0.00 | 0.00 | 0.00 | 45 | 1015.6 |
| 20260831175502 | 37 | 1 | 6.4 | 12.9 | 0.00 | 0.00 | 0.00 | 45 | 1015.6 |
| 20260831175003 | 37 | 339 | 8.0 | 14.5 | 0.00 | 0.00 | 0.00 | 47 | 1015.7 |
| 20260831174612 | 36 | 13 | 3.2 | 17.7 | 0.00 | 0.00 | 0.00 | 47 | 1015.9 |
| 20260831174502 | 36 | 260 | 3.2 | 14.5 | 0.00 | 0.00 | 0.00 | 47 | 1015.7 |
| 20260831174220 | 36 | 176 | 6.4 | 14.5 | 0.00 | 0.00 | 0.00 | 48 | 1015.8 |
| 20260831173457 | 36 | 97 | 4.8 | 11.3 | 0.00 | 0.00 | 0.00 | 47 | 1016.0 |
| 20260831173211 | 36 | 153 | 4.8 | 12.9 | 0.00 | 0.00 | 0.00 | 48 | 1016.0 |
| 20260831173107 | 36 | 283 | 4.8 | 12.9 | 0.00 | 0.00 | 0.00 | 47 | 1016.2 |
| 20260831172447 | 36 | 30 | 6.4 | 12.9 | 0.00 | 0.00 | 0.00 | 50 | 1016.1 |
| 20260831171943 | 36 | 101 | 4.8 | 19.3 | 0.00 | 0.00 | 0.00 | 50 | 1016.1 |
| 20260831171555 | 35 | 277 | 6.4 | 17.7 | 0.00 | 0.00 | 0.00 | 50 | 1016.3 |
| 20260831171439 | 35 | 242 | 8.0 | 19.3 | 0.00 | 0.00 | 0.00 | 50 | 1016.2 |
| 20260831171155 | 35 | 150 | 6.4 | 14.5 | 0.00 | 0.00 | 0.00 | 50 | 1016.2 |
| 20260831170431 | 35 | 218 | 3.2 | 12.9 | 0.00 | 0.00 | 0.00 | 52 | 1016.1 |
| 20260831170152 | 35 | 258 | 6.4 | 14.5 | 0.00 | 0.00 | 0.00 | 52 | 1016.2 |
| 20260831170058 | 35 | 55 | 4.8 | 12.9 | 0.00 | 0.00 | 0.00 | 52 | 1016.5 |
| 20260831165431 | 35 | 162 | 6.4 | 14.5 | 0.00 | 0.00 | 0.00 | 52 | 1016.2 |
| 20260831164931 | 35 | 251 | 6.4 | 12.9 | 0.00 | 0.00 | 0.00 | 54 | 1016.2 |
| 20260831164606 | 35 | 121 | 3.2 | 12.9 | 0.00 | 0.00 | 0.00 | 54 | 1016.4 |
| 20260831164430 | 35 | 58 | 4.8 | 14.5 | 0.00 | 0.00 | 0.00 | 54 | 1016.1 |
| 20260831163930 | 34 | 65 | 6.4 | 14.5 | 0.00 | 0.00 | 0.00 | 56 | 1016.2 |
| 20260831163650 | 34 | 211 | 3.2 | 14.5 | 0.00 | 0.00 | 0.00 | 57 | 1016.3 |
| 20260831163055 | 33 | 234 | 4.8 | 16.1 | 0.00 | 0.00 | 0.00 | 55 | 1016.4 |
| 20260831162928 | 34 | 154 | 4.8 | 14.5 | 0.00 | 0.00 | 0.00 | 56 | 1016.2 |
| 20260831162423 | 34 | 288 | 4.8 | 11.3 | 0.00 | 0.00 | 0.00 | 57 | 1016.3 |
| 20260831161919 | 34 | 300 | 6.4 | 16.1 | 0.00 | 0.00 | 0.00 | 58 | 1016.2 |
| 20260831161607 | 33 | 209 | 3.2 | 16.1 | 0.00 | 0.00 | 0.00 | 57 | 1016.5 |
| 20260831161415 | 33 | 266 | 4.8 | 16.1 | 0.00 | 0.00 | 0.00 | 57 | 1016.2 |
| 20260831160911 | 33 | 39 | 4.8 | 14.5 | 0.00 | 0.00 | 0.00 | 59 | 1016.3 |
| 20260831160410 | 33 | 72 | 4.8 | 14.5 | 0.00 | 0.00 | 0.00 | 60 | 1016.4 |
| 20260831160109 | 33 | 231 | 3.2 | 16.1 | 0.00 | 0.00 | 0.00 | 60 | 1016.7 |
| 20260831155906 | 33 | 245 | 4.8 | 12.9 | 0.00 | 0.00 | 0.00 | 62 | 1016.5 |
| 20260831155406 | 33 | 176 | 4.8 | 11.3 | 0.00 | 0.00 | 0.00 | 62 | 1016.4 |
| 20260831154906 | 32 | 230 | 4.8 | 14.5 | 0.00 | 0.00 | 0.00 | 63 | 1016.4 |
| 20260831154621 | 32 | 37 | 4.8 | 14.5 | 0.00 | 0.00 | 0.00 | 64 | 1016.7 |
| 20260831154408 | 32 | 75 | 6.4 | 14.5 | 0.00 | 0.00 | 0.00 | 65 | 1016.5 |
| 20260831153908 | 32 | 169 | 4.8 | 14.5 | 0.00 | 0.00 | 0.00 | 65 | 1016.4 |
| 20260831153359 | 32 | 104 | 6.4 | 16.1 | 0.00 | 0.00 | 0.00 | 65 | 1016.4 |
| 20260831153105 | 31 | 136 | 4.8 | 17.7 | 0.00 | 0.00 | 0.00 | 66 | 1016.6 |
| 20260831152855 | 31 | 341 | 4.8 | 16.1 | 0.00 | 0.00 | 0.00 | 66 | 1016.3 |
| 20260831152611 | 31 | 25 | 3.2 | 12.9 | 0.00 | 0.00 | 0.00 | 69 | 1016.3 |
| 20260831152115 | 31 | 53 | 8.0 | 17.7 | 0.00 | 0.00 | 0.00 | 69 | 1016.4 |
| 20260831151607 | 31 | 226 | 6.4 | 16.1 | 0.00 | 0.00 | 0.00 | 69 | 1016.6 |
| 20260831151340 | 31 | 186 | 6.4 | 17.7 | 0.00 | 0.00 | 0.00 | 70 | 1016.4 |
| 20260831151112 | 31 | 11 | 6.4 | 16.1 | 0.00 | 0.00 | 0.00 | 71 | 1016.4 |
| 20260831150333 | 30 | 23 | 4.8 | 16.1 | 0.00 | 0.00 | 0.00 | 72 | 1016.4 |
| 20260831150058 | 30 | 274 | 4.8 | 17.7 | 0.00 | 0.00 | 0.00 | 72 | 1016.5 |
| 20260831145831 | 30 | 297 | 4.8 | 17.7 | 0.00 | 0.00 | 0.00 | 73 | 1016.4 |
| 20260831145331 | 30 | 240 | 8.0 | 17.7 | 0.00 | 0.00 | 0.00 | 73 | 1016.4 |
| 20260831144830 | 30 | 169 | 4.8 | 12.9 | 0.00 | 0.00 | 0.00 | 75 | 1016.3 |
| 20260831144609 | 30 | 273 | 4.8 | 14.5 | 0.00 | 0.00 | 0.00 | 73 | 1016.5 |
| 20260831144331 | 30 | 139 | 4.8 | 12.9 | 0.00 | 0.00 | 0.00 | 74 | 1016.2 |
| 20260831143828 | 30 | 135 | 6.4 | 14.5 | 0.00 | 0.00 | 0.00 | 76 | 1016.3 |
| 20260831143554 | 30 | 143 | 6.4 | 14.5 | 0.00 | 0.00 | 0.00 | 76 | 1016.3 |
| 20260831143053 | 29 | 211 | 3.2 | 12.9 | 0.00 | 0.00 | 0.00 | 76 | 1016.6 |
| 20260831142828 | 30 | 37 | 4.8 | 12.9 | 0.00 | 0.00 | 0.00 | 76 | 1016.3 |
| 20260831142329 | 29 | 216 | 4.8 | 16.1 | 0.00 | 0.00 | 0.00 | 78 | 1016.4 |
| 20260831141829 | 29 | 184 | 4.8 | 16.1 | 0.00 | 0.00 | 0.00 | 78 | 1016.2 |
| 20260831141605 | 28 | 7 | 4.8 | 12.9 | 0.00 | 0.00 | 0.00 | 78 | 1016.6 |
| 20260831141329 | 29 | 170 | 4.8 | 14.5 | 0.00 | 0.00 | 0.00 | 79 | 1016.3 |
| 20260831140828 | 29 | 250 | 3.2 | 14.5 | 0.00 | 0.00 | 0.00 | 79 | 1016.4 |
| 20260831140551 | 28 | 59 | 4.8 | 11.3 | 0.00 | 0.00 | 0.00 | 81 | 1016.3 |
| 20260831140057 | 28 | 232 | 1.6 | 9.7 | 0.00 | 0.00 | 0.00 | 81 | 1016.7 |
| 20260831135829 | 28 | 146 | 3.2 | 9.7 | 0.00 | 0.00 | 0.00 | 82 | 1016.4 |
| 20260831135554 | 28 | 13 | 4.8 | 9.7 | 0.00 | 0.00 | 0.00 | 82 | 1016.2 |
| 20260831134831 | 28 | 240 | 3.2 | 11.3 | 0.00 | 0.00 | 0.00 | 82 | 1016.2 |
| 20260831134600 | 28 | 150 | 3.2 | 11.3 | 0.00 | 0.00 | 0.00 | 82 | 1016.3 |
| 20260831134330 | 28 | 60 | 3.2 | 11.3 | 0.00 | 0.00 | 0.00 | 83 | 1016.1 |
| 20260831133830 | 28 | 99 | 3.2 | 9.7 | 0.00 | 0.00 | 0.00 | 83 | 1016.1 |
| 20260831133329 | 28 | 308 | 3.2 | 9.7 | 0.00 | 0.00 | 0.00 | 83 | 1016.0 |
| 20260831133055 | 27 | 11 | 1.6 | 8.0 | 0.00 | 0.00 | 0.00 | 83 | 1016.2 |
| 20260831132828 | 28 | 298 | 3.2 | 8.0 | 0.00 | 0.00 | 0.00 | 84 | 1016.0 |
| 20260831132330 | 28 | 66 | 4.8 | 8.0 | 0.00 | 0.00 | 0.00 | 83 | 1015.9 |
| 20260831131829 | 28 | 189 | 3.2 | 8.0 | 0.00 | 0.00 | 0.00 | 84 | 1015.9 |
| 20260831131603 | 27 | 15 | 3.2 | 8.0 | 0.00 | 0.00 | 0.00 | 83 | 1016.0 |
| 20260831131329 | 28 | 293 | 1.6 | 8.0 | 0.00 | 0.00 | 0.00 | 84 | 1015.8 |
| 20260831130829 | 27 | 274 | 3.2 | 8.0 | 0.00 | 0.00 | 0.00 | 84 | 1015.9 |
| 20260831130328 | 27 | 240 | 3.2 | 9.7 | 0.00 | 0.00 | 0.00 | 85 | 1015.9 |
| 20260831130116 | 27 | 217 | 1.6 | 8.0 | 0.00 | 0.00 | 0.00 | 85 | 1016.1 |
| 20260831125828 | 27 | 63 | 3.2 | 9.7 | 0.00 | 0.00 | 0.00 | 85 | 1015.9 |
| 20260831125331 | 27 | 51 | 1.6 | 6.4 | 0.00 | 0.00 | 0.00 | 86 | 1015.8 |
| 20260831125316 | 27 | 44 | 3.2 | 6.4 | 0.00 | 0.00 | 0.00 | 86 | 1015.9 |
| 20260831124555 | 27 | 321 | 1.6 | 6.4 | 0.00 | 0.00 | 0.00 | 86 | 1016.0 |
| 20260831124329 | 27 | 338 | 1.6 | 4.8 | 0.00 | 0.00 | 0.00 | 86 | 1015.7 |
| 20260831123829 | 27 | 120 | 1.6 | 4.8 | 0.00 | 0.00 | 0.00 | 87 | 1015.5 |
| 20260831123329 | 27 | 295 | 1.6 | 3.2 | 0.00 | 0.00 | 0.00 | 87 | 1015.6 |
| 20260831123105 | 26 | 74 | 0.0 | 6.4 | 0.00 | 0.00 | 0.00 | 86 | 1015.7 |
| 20260831122828 | 27 | 262 | 1.6 | 6.4 | 0.00 | 0.00 | 0.00 | 87 | 1015.5 |
| 20260831122554 | 27 | 86 | 3.2 | 6.4 | 0.00 | 0.00 | 0.00 | 87 | 1015.3 |
| 20260831121831 | 27 | 329 | 1.6 | 6.4 | 0.00 | 0.00 | 0.00 | 87 | 1015.4 |
| 20260831121601 | 26 | 91 | 1.6 | 4.8 | 0.00 | 0.00 | 0.00 | 86 | 1015.5 |
| 20260831121331 | 27 | 179 | 3.2 | 6.4 | 0.00 | 0.00 | 0.00 | 86 | 1015.2 |
| 20260831120831 | 27 | 231 | 3.2 | 4.8 | 0.00 | 0.00 | 0.00 | 86 | 1015.1 |
| 20260831120329 | 27 | 127 | 1.6 | 4.8 | 0.00 | 0.00 | 0.00 | 86 | 1015.1 |
| 20260831120057 | 27 | 191 | 1.6 | 4.8 | 0.00 | 0.00 | 0.00 | 86 | 1015.2 |
| 20260831115829 | 27 | 332 | 1.6 | 4.8 | 0.00 | 0.00 | 0.00 | 86 | 1015.0 |
| 20260831115329 | 27 | 216 | 1.6 | 8.0 | 0.00 | 0.00 | 0.00 | 86 | 1015.0 |
| 20260831114829 | 27 | 300 | 1.6 | 8.0 | 0.00 | 0.00 | 0.00 | 86 | 1015.0 |
| 20260831114606 | 27 | 288 | 1.6 | 4.8 | 0.00 | 0.00 | 0.00 | 85 | 1015.2 |
| 20260831114329 | 27 | 323 | 1.6 | 4.8 | 0.00 | 0.00 | 0.00 | 86 | 1015.0 |
| 20260831113828 | 27 | 262 | 0.0 | 6.4 | 0.00 | 0.00 | 0.00 | 86 | 1014.9 |
| 20260831113328 | 27 | 179 | 1.6 | 6.4 | 0.00 | 0.00 | 0.00 | 85 | 1014.9 |
| 20260831113052 | 27 | 248 | 1.6 | 6.4 | 0.00 | 0.00 | 0.00 | 85 | 1015.1 |
| 20260831112828 | 27 | 13 | 1.6 | 4.8 | 0.00 | 0.00 | 0.00 | 85 | 1015.0 |
| 20260831112329 | 27 | 20 | 1.6 | 6.4 | 0.00 | 0.00 | 0.00 | 85 | 1015.0 |
| 20260831111829 | 27 | 193 | 1.6 | 6.4 | 0.00 | 0.00 | 0.00 | 85 | 1015.1 |
| 20260831111612 | 27 | 295 | 0.0 | 6.4 | 0.00 | 0.00 | 0.00 | 85 | 1015.2 |
| 20260831111328 | 27 | 231 | 0.0 | 4.8 | 0.00 | 0.00 | 0.00 | 85 | 1015.0 |
| 20260831110829 | 27 | 169 | 1.6 | 3.2 | 0.00 | 0.00 | 0.00 | 85 | 1015.0 |
| 20260831110329 | 27 | 276 | 1.6 | 4.8 | 0.00 | 0.00 | 0.00 | 85 | 1015.0 |
| 20260831110151 | 27 | 35 | 0.0 | 6.4 | 0.00 | 0.00 | 0.00 | 85 | 1015.2 |
| 20260831105829 | 27 | 231 | 0.0 | 6.4 | 0.00 | 0.00 | 0.00 | 85 | 1015.0 |
| 20260831105329 | 27 | 236 | 1.6 | 6.4 | 0.00 | 0.00 | 0.00 | 85 | 1014.8 |
| 20260831104829 | 27 | 91 | 1.6 | 6.4 | 0.00 | 0.00 | 0.00 | 85 | 1015.0 |
| 20260831104605 | 27 | 187 | 3.2 | 8.0 | 0.00 | 0.00 | 0.00 | 85 | 1015.0 |
| 20260831104551 | 27 | 250 | 3.2 | 4.8 | 0.00 | 0.00 | 0.00 | 84 | 1015.1 |
| 20260831104052 | 27 | 145 | 0.0 | 8.0 | 0.00 | 0.00 | 0.00 | 84 | 1014.9 |
| 20260831103553 | 27 | 153 | 1.6 | 6.4 | 0.00 | 0.00 | 0.00 | 85 | 1014.8 |
| 20260831103101 | 27 | 49 | 1.6 | 8.0 | 0.00 | 0.00 | 0.00 | 84 | 1015.1 |
| 20260831102829 | 27 | 82 | 3.2 | 8.0 | 0.00 | 0.00 | 0.00 | 84 | 1014.8 |
| 20260831102325 | 27 | 230 | 1.6 | 8.0 | 0.00 | 0.00 | 0.00 | 84 | 1014.9 |
| 20260831102044 | 27 | 296 | 1.6 | 8.0 | 0.00 | 0.00 | 0.00 | 84 | 1014.9 |
| 20260831101555 | 27 | 231 | 3.2 | 8.0 | 0.00 | 0.00 | 0.00 | 84 | 1015.0 |
| 20260831101317 | 27 | 338 | 3.2 | 8.0 | 0.00 | 0.00 | 0.00 | 84 | 1014.9 |
| 20260831100812 | 27 | 65 | 3.2 | 6.4 | 0.00 | 0.00 | 0.00 | 84 | 1014.8 |
| 20260831100306 | 27 | 295 | 1.6 | 8.0 | 0.00 | 0.00 | 0.00 | 84 | 1014.9 |
| 20260831100104 | 27 | 0 | 1.6 | 8.0 | 0.00 | 0.00 | 0.00 | 83 | 1015.0 |
| 20260831095807 | 28 | 113 | 1.6 | 8.0 | 0.00 | 0.00 | 0.00 | 84 | 1014.9 |
| 20260831095305 | 28 | 176 | 1.6 | 9.7 | 0.00 | 0.00 | 0.00 | 84 | 1015.1 |
| 20260831095025 | 28 | 250 | 3.2 | 9.7 | 0.00 | 0.00 | 0.00 | 84 | 1015.0 |
| 20260831094602 | 27 | 165 | 3.2 | 8.0 | 0.00 | 0.00 | 0.00 | 83 | 1015.3 |
| 20260831094533 | 28 | 14 | 1.6 | 6.4 | 0.00 | 0.00 | 0.00 | 84 | 1015.0 |
| 20260831094023 | 28 | 355 | 3.2 | 6.4 | 0.00 | 0.00 | 0.00 | 84 | 1015.1 |
| 20260831093253 | 28 | 288 | 3.2 | 6.4 | 0.00 | 0.00 | 0.00 | 84 | 1015.1 |
| 20260831093103 | 27 | 98 | 1.6 | 12.9 | 0.00 | 0.00 | 0.00 | 84 | 1015.2 |
| 20260831092750 | 28 | 345 | 3.2 | 6.4 | 0.00 | 0.00 | 0.00 | 84 | 1015.0 |
| 20260831092246 | 28 | 341 | 1.6 | 6.4 | 0.00 | 0.00 | 0.00 | 84 | 1014.8 |
| 20260831091741 | 28 | 18 | 4.8 | 6.4 | 0.00 | 0.00 | 0.00 | 84 | 1014.9 |
| 20260831091557 | 27 | 303 | 1.6 | 6.4 | 0.00 | 0.00 | 0.00 | 83 | 1015.1 |
| 20260831091238 | 28 | 152 | 3.2 | 8.0 | 0.00 | 0.00 | 0.00 | 84 | 1015.0 |
| 20260831090957 | 28 | 41 | 1.6 | 8.0 | 0.00 | 0.00 | 0.00 | 83 | 1014.9 |
| 20260831090455 | 28 | 63 | 4.8 | 8.0 | 0.00 | 0.00 | 0.00 | 83 | 1015.0 |
| 20260831085732 | 28 | 288 | 1.6 | 9.7 | 0.00 | 0.00 | 0.00 | 83 | 1014.9 |
| 20260831085450 | 28 | 280 | 4.8 | 19.3 | 0.00 | 0.00 | 0.00 | 83 | 1014.9 |
| 20260831085433 | 28 | 171 | 3.2 | 11.3 | 0.00 | 0.00 | 0.00 | 83 | 1015.0 |
| 20260831084604 | 28 | 186 | 3.2 | 19.3 | 0.00 | 0.00 | 0.00 | 82 | 1015.1 |
| 20260831084229 | 28 | 129 | 3.2 | 19.3 | 0.00 | 0.00 | 0.00 | 83 | 1014.9 |
| 20260831083729 | 28 | 24 | 3.2 | 12.9 | 0.00 | 0.00 | 0.00 | 83 | 1015.0 |
| 20260831083229 | 28 | 149 | 4.8 | 12.9 | 0.00 | 0.00 | 0.00 | 82 | 1015.1 |
| 20260831083057 | 28 | 253 | 4.8 | 12.9 | 0.00 | 0.00 | 0.00 | 82 | 1015.3 |
| 20260831082725 | 28 | 6 | 3.2 | 12.9 | 0.00 | 0.00 | 0.00 | 82 | 1015.1 |
| 20260831082221 | 28 | 138 | 3.2 | 12.9 | 0.00 | 0.00 | 0.00 | 82 | 1015.1 |
| 20260831082002 | 28 | 275 | 1.6 | 14.5 | 0.00 | 0.00 | 0.00 | 82 | 1015.3 |
| 20260831081634 | 28 | 213 | 3.2 | 14.5 | 0.00 | 0.00 | 0.00 | 81 | 1015.3 |
| 20260831081213 | 28 | 282 | 6.4 | 14.5 | 0.00 | 0.00 | 0.00 | 82 | 1015.3 |
| 20260831080709 | 28 | 220 | 6.4 | 12.9 | 0.00 | 0.00 | 0.00 | 82 | 1015.4 |
| 20260831080204 | 28 | 85 | 4.8 | 9.7 | 0.00 | 0.00 | 0.00 | 82 | 1015.3 |
| 20260831075702 | 28 | 357 | 6.4 | 12.9 | 0.00 | 0.00 | 0.00 | 83 | 1015.2 |
| 20260831075203 | 28 | 302 | 6.4 | 12.9 | 0.00 | 0.00 | 0.00 | 83 | 1015.3 |
| 20260831074703 | 28 | 32 | 1.6 | 8.0 | 0.00 | 0.00 | 0.00 | 83 | 1015.5 |
| 20260831074602 | 28 | 250 | 3.2 | 8.0 | 0.00 | 0.00 | 0.00 | 82 | 1015.7 |
| 20260831074424 | 28 | 23 | 3.2 | 8.0 | 0.00 | 0.00 | 0.00 | 83 | 1015.6 |
| 20260831073702 | 28 | 239 | 3.2 | 8.0 | 0.00 | 0.00 | 0.00 | 83 | 1015.7 |
| 20260831073158 | 28 | 136 | 1.6 | 9.7 | 0.00 | 0.00 | 0.00 | 83 | 1015.7 |
| 20260831073156 | 28 | 197 | 1.6 | 9.7 | 0.00 | 0.00 | 0.00 | 82 | 1015.8 |
| 20260831072655 | 28 | 17 | 3.2 | 9.7 | 0.00 | 0.00 | 0.00 | 83 | 1015.7 |
| 20260831072415 | 28 | 231 | 3.2 | 8.0 | 0.00 | 0.00 | 0.00 | 83 | 1015.7 |
| 20260831071647 | 28 | 97 | 3.2 | 11.3 | 0.00 | 0.00 | 0.00 | 83 | 1015.7 |
| 20260831071601 | 28 | 290 | 3.2 | 11.3 | 0.00 | 0.00 | 0.00 | 82 | 1015.9 |
| 20260831071142 | 28 | 108 | 3.2 | 11.3 | 0.00 | 0.00 | 0.00 | 83 | 1015.8 |
| 20260831070638 | 28 | 130 | 3.2 | 8.0 | 0.00 | 0.00 | 0.00 | 83 | 1015.8 |
| 20260831070133 | 28 | 87 | 3.2 | 8.0 | 0.00 | 0.00 | 0.00 | 82 | 1015.9 |
| 20260831070108 | 28 | 120 | 1.6 | 12.9 | 0.00 | 0.00 | 0.00 | 82 | 1016.1 |
| 20260831065837 | 28 | 207 | 6.4 | 11.3 | 0.00 | 0.00 | 0.00 | 82 | 1016.0 |
| 20260831065823 | 28 | 39 | 3.2 | 11.3 | 0.00 | 0.00 | 0.00 | 82 | 1015.9 |
| 20260831064854 | 28 | 214 | 3.2 | 11.3 | 0.00 | 0.00 | 0.00 | 82 | 1016.0 |
| 20260831064607 | 28 | 104 | 3.2 | 12.9 | 0.00 | 0.00 | 0.00 | 82 | 1016.2 |
| 20260831064129 | 28 | 257 | 3.2 | 12.9 | 0.00 | 0.00 | 0.00 | 82 | 1016.1 |
| 20260831063628 | 28 | 51 | 4.8 | 12.9 | 0.00 | 0.00 | 0.00 | 82 | 1016.0 |
| 20260831063128 | 28 | 160 | 0.0 | 9.7 | 0.00 | 0.00 | 0.00 | 82 | 1016.0 |
| 20260831063056 | 28 | 0 | 1.6 | 11.3 | 0.00 | 0.00 | 0.00 | 81 | 1016.3 |
| 20260831062858 | 28 | 51 | 4.8 | 9.7 | 0.00 | 0.00 | 0.00 | 81 | 1015.9 |
| 20260831062128 | 28 | 51 | 3.2 | 9.7 | 0.00 | 0.00 | 0.00 | 81 | 1015.9 |
| 20260831061629 | 28 | 216 | 3.2 | 11.3 | 0.00 | 0.00 | 0.00 | 81 | 1015.9 |
| 20260831061554 | 28 | 198 | 3.2 | 12.9 | 0.00 | 0.00 | 0.00 | 81 | 1016.1 |
| 20260831061129 | 28 | 195 | 3.2 | 11.3 | 0.00 | 0.00 | 0.00 | 81 | 1016.0 |
| 20260831060630 | 29 | 345 | 3.2 | 9.7 | 0.00 | 0.00 | 0.00 | 81 | 1016.0 |
| 20260831060129 | 29 | 321 | 3.2 | 9.7 | 0.00 | 0.00 | 0.00 | 80 | 1016.1 |
| 20260831060115 | 28 | 257 | 1.6 | 12.9 | 0.00 | 0.00 | 0.00 | 80 | 1016.3 |
| 20260831055629 | 29 | 39 | 3.2 | 9.7 | 0.00 | 0.00 | 0.00 | 80 | 1016.1 |
| 20260831055129 | 29 | 276 | 4.8 | 17.7 | 0.00 | 0.00 | 0.00 | 80 | 1016.1 |